Regional Weather Roundup
Issued by NWS

Home | Current Version | Previous Version | Text Only | Print | Product List | Glossary Off
Versions: 1 2 3 4 5 6 7 8 9 10 11 12 13 14 15 16 17 18 19 20 21 22 23 24 25 26 27 28 29 30 31 32 33 34 35 36 37 38 39 40 41 42 43 44 45 46 47 48 49 50

000
ASUS45 KSLC 251210
RWRUT

UTAH REGIONAL WEATHER ROUNDUP
NATIONAL WEATHER SERVICE SALT LAKE CITY UT
500 AM MST THU DEC 25 2014

UTZ001>011-023>025-251300-

NORTHERN UTAH

CITY           SKY/WX    TMP DP  RH WIND       PRES   REMARKS
BRIGHAM CITY   CLOUDY    32  30  93 CALM      29.51S
HILL AFB       FLURRIES  29  28  94 S7        29.51R WCI  22
LOGAN          LGT SNOW  32  28  85 NE6       29.48S FOG     WCI  26
OGDEN          LGT SNOW  30  29  96 S6        29.50R FOG     WCI  24
PROVO AIRPORT  CLOUDY    30  28  93 NW22      29.49F WCI  17
SALT LAKE CITY FLURRIES  33  24  69 W20       29.55R WCI  21
VERNAL         LGT SNOW  27  21  78 E6        29.51S WCI  20
WENDOVER       CLOUDY    32  18  55 NW14G26   29.60R WCI  22
HEBER CITY     LGT SNOW  30  28  93 NE3       29.44S
WEST JORDAN    CLOUDY    30  28  93 NW13      29.55R WCI  20

$$

UTZ012>022-026-027-251300-

SOUTHERN/CENTRAL UTAH

CITY           SKY/WX    TMP DP  RH WIND       PRES   REMARKS
BLANDING       CLOUDY    30  16  56 E3        29.65F
BRYCE CANYON   FLURRIES  24  18  77 S6        29.51F WCI  17
CEDAR CITY     LGT SNOW  28  27  96 SW13      29.55R FOG     WCI  17
DELTA          CLOUDY    29  27  93 NW21G26   29.55R WCI  15
MILFORD        LGT SNOW  30  26  85 S18       29.53F FOG     WCI  18
MOAB/CYNLANDS  CLOUDY    30  20  66 NW8       29.50F WCI  22
PRICE          LGT SNOW  24  20  84 N5        29.49F FOG     WCI  18
ST GEORGE      CLOUDY    37  28  70 N9        29.66S WCI  31
KANAB          CLOUDY    32  30  93 SW13G20   29.65S WCI  22

$$

REGIONAL REPORTS     COLORADO/ARIZONA

CITY           SKY/WX    TMP DP  RH WIND       PRES   REMARKS
CRAIG, CO      CLOUDY    31  24  75 SW8       29.48F WCI  23
GRAND JUNCTION CLOUDY    30  21  69 NE5       29.52F WCI  25
RIFLE          CLOUDY    25  19  78 SE5       29.57F WCI  19
MONTROSE       MOCLDY    28  17  63 NE9       29.53F WCI  19
CORTEZ         CLOUDY    37  15  40 VRB6      29.60F WCI  32
PAGE, AZ       CLOUDY    36  17  46 CALM      29.56S
GRAND CANYON   CLOUDY    32  10  40 SW17G29   29.63F WCI  21
KINGMAN        PTCLDY    48  21  34 SW22G33   29.68S
FLAGSTAFF      MOCLDY    30   9  41 SW18      29.67F WCI  18

$$

REGIONAL REPORTS    NEVADA/IDAHO/WYOMING

CITY           SKY/WX    TMP DP  RH WIND       PRES   REMARKS
LAS VEGAS, NV  CLOUDY    51  19  28 N26G33    29.63S
ELY            CLOUDY    23  14  68 N6        29.69R WCI  16
ELKO           LGT SNOW  24  19  81 W10       29.77S WCI  14
POCATELLO, ID  LGT SNOW  28  28 100 SW18      29.48R VSB 1   WCI  15
EVANSTON, WY   LGT SNOW  26  25  96 W18       29.40R FOG     WCI  13
ROCK SPRINGS   CLOUDY    27  18  69 SE7       29.39S WCI  19
KEMMERER       LGT SNOW  28  27  93 SW15      29.36R WCI  17

$$


USA.gov is the U.S. government's official web portal to all federal, state and local government web resources and services.